This demonstration page uses our WeatherBlox Daily Observations layout. Learn more.

Left ArrowRight Arrow

39.51506, -84.39828

Hourly Observations for May 1, 2017

Temp ( °F °C ) Dew Point ( °F °C ) Humidity (%) Winds ( mph kmh ) Pressure ( in mb ) Visibility ( mi km ) Precip ( " mm )
12:15 am 00:15 Mostly Cloudy 74 23.6 60 15.4 60 60 S 9 15 29.74 1007 10 16 N/A
12:35 am 00:35 Mostly Cloudy 74 23.6 58 14.5 57 57 S 13 20 29.74 1007 10 16 N/A
12:55 am 00:55 Partly Cloudy 74 23.6 57 14.1 55 55 S 12 19 29.74 1007 10 16 N/A
1:15 am 01:15 Cloudy 74 23.6 58 14.5 57 57 S 14 22 29.74 1007 10 16 N/A
1:35 am 01:35 Cloudy 74 23.6 59 15.1 59 59 S 13 20 29.74 1007 10 16 N/A
1:55 am 01:55 Cloudy 74 23.6 59 15.1 59 59 S 14 22 29.74 1007 10 16 N/A
2:15 am 02:15 Cloudy 74 23.6 60 15.4 60 60 S 12 19 29.71 1006 10 16 N/A
2:35 am 02:35 Cloudy 74 23.6 60 15.8 62 62 S 13 20 29.71 1006 10 16 N/A
2:55 am 02:55 Cloudy with Drizzle 74 23.5 62 16.4 65 65 S 10 17 29.71 1006 10 16 N/A
3:15 am 03:15 Cloudy 74 23.6 61 16.2 63 63 SSE 15 24 29.68 1005 10 16 N/A
3:35 am 03:35 Cloudy with Light Rain 71 21.6 60 15.4 68 68 S 14 22 29.68 1005 10 16 N/A
3:55 am 03:55 Cloudy with Rain 69 20.8 61 16 74 74 S 13 20 29.68 1005 10 16 N/A
4:15 am 04:15 Cloudy 69 20.8 61 16.2 75 75 S 10 17 29.68 1005 10 16 N/A
4:35 am 04:35 Cloudy with Light Rain 69 20.8 62 16.5 77 77 SSE 10 17 29.65 1004 10 16 N/A
4:55 am 04:55 Cloudy 69 20.8 61 16.1 75 75 S 14 22 29.65 1004 10 16 N/A
5:15 am 05:15 Cloudy 69 20.8 60 15.6 72 72 S 15 24 29.65 1004 10 16 N/A
5:35 am 05:35 Cloudy 69 20.8 60 15.3 71 71 S 15 24 29.62 1003 10 16 N/A
5:55 am 05:55 Cloudy with Rain 69 20.8 61 16 74 74 S 14 22 29.62 1003 7 11 N/A
6:15 am 06:15 Cloudy 69 20.8 63 17 79 79 S 9 15 29.62 1003 10 16 N/A
6:35 am 06:35 Cloudy with Rain 69 20.8 62 16.7 77 77 S 13 20 29.62 1003 10 16 N/A
6:55 am 06:55 Cloudy with Heavy Rain 63 17.4 55 12.9 75 75 WSW 18 30 29.65 1004 5 8 N/A
7:15 am 07:15 Cloudy with Rain 60 15.3 54 12.2 82 82 SW 15 24 29.65 1004 5 8 N/A
7:35 am 07:35 Cloudy with Heavy Rain 59 15 54 12.1 83 83 SW 14 22 29.65 1004 2 3 N/A
7:55 am 07:55 Cloudy with Light Rain 57 13.8 52 10.9 83 83 SW 8 13 29.65 1004 10 16 N/A
8:15 am 08:15 Cloudy with Light Rain 58 14.2 52 11.1 82 82 SSW 7 11 29.65 1004 10 16 N/A
8:35 am 08:35 Cloudy with Rain 57 13.9 51 10.3 79 79 SSW 8 13 29.65 1004 7 11 N/A
8:55 am 08:55 Cloudy with Rain 57 13.8 51 10.3 80 80 S 7 11 29.65 1004 7 11 N/A
9:15 am 09:15 Cloudy 57 13.8 51 10.3 80 80 S 6 9 29.65 1004 10 16 N/A
9:35 am 09:35 Cloudy 57 14 51 10.5 80 80 S 6 9 29.65 1004 10 16 N/A
9:55 am 09:55 Cloudy 60 15.3 53 11.5 78 78 SSE 6 9 29.65 1004 10 16 N/A
10:15 am 10:15 Cloudy 60 15.3 52 11.1 76 76 ESE 6 9 29.65 1004 10 16 N/A
10:35 am 10:35 Cloudy 60 15.3 50 10.2 72 72 SSE 8 13 29.62 1003 10 16 N/A
10:55 am 10:55 Mostly Cloudy 62 16.5 52 10.9 70 70 S 7 11 29.62 1003 10 16 N/A
11:15 am 11:15 Mostly Cloudy 62 16.6 49 9.7 64 64 S 10 17 29.59 1002 10 16 N/A
11:35 am 11:35 Partly Cloudy 63 17.3 49 9.4 60 60 S 12 19 29.59 1002 10 16 N/A
11:55 am 11:55 Mostly Cloudy 66 18.7 50 10.1 58 58 SSW 15 24 29.59 1002 10 16 N/A
12:15 pm 12:15 Mostly Cloudy 66 18.9 49 9.6 55 55 SSW 18 30 29.59 1002 10 16 N/A
12:35 pm 12:35 Mostly Cloudy 66 18.7 48 8.7 52 52 SSW 17 28 29.59 1002 10 16 N/A
12:55 pm 12:55 Mostly Cloudy 69 20.8 50 9.9 50 50 SSW 15 24 29.59 1002 10 16 N/A
1:15 pm 13:15 Mostly Cloudy 69 20.4 50 9.8 51 51 SSW 17 28 29.56 1001 10 16 N/A
1:35 pm 13:35 Cloudy 67 19.5 48 9 51 51 SW 16 26 29.56 1001 10 16 N/A
1:55 pm 13:55 Mostly Cloudy 69 20.8 47 8.3 45 45 SSW 21 33 29.53 1000 10 16 N/A
2:15 pm 14:15 Mostly Cloudy 69 20.8 47 8.2 44 44 SSW 25 41 29.53 1000 10 16 N/A
2:35 pm 14:35 Mostly Cloudy 68 19.8 44 6.5 42 42 SW 20 31 29.56 1001 10 16 N/A
2:55 pm 14:55 Cloudy 69 20.6 44 6.9 41 41 SW 24 39 29.56 1001 10 16 N/A
3:15 pm 15:15 Cloudy 68 20 44 6.7 42 42 SW 24 39 29.56 1001 10 16 N/A
3:35 pm 15:35 Cloudy 64 17.5 44 6.6 49 49 WSW 23 37 29.59 1002 10 16 N/A
3:55 pm 15:55 Cloudy 62 16.6 44 6.6 52 52 SW 24 39 29.59 1002 10 16 N/A
4:15 pm 16:15 Mostly Cloudy 62 16.6 40 4.6 45 45 SW 26 43 29.62 1003 10 16 N/A
4:35 pm 16:35 Mostly Cloudy 62 16.6 41 4.8 46 46 SW 21 33 29.62 1003 10 16 N/A
4:55 pm 16:55 Mostly Cloudy 61 16 39 3.7 44 44 SW 22 35 29.62 1003 10 16 N/A
5:15 pm 17:15 Cloudy 61 16 38 3.1 42 42 SW 21 33 29.62 1003 10 16 N/A
5:35 pm 17:35 Cloudy 61 16 38 3.6 44 44 SW 28 44 29.65 1004 10 16 N/A
5:55 pm 17:55 Cloudy 60 15.3 38 3.2 45 45 WSW 23 37 29.65 1004 10 16 N/A
6:15 pm 18:15 Cloudy 60 15.3 38 3.2 45 45 SW 26 43 29.68 1005 10 16 N/A
6:35 pm 18:35 Cloudy 57 13.8 37 2.6 47 47 SW 14 22 29.68 1005 10 16 N/A
6:55 pm 18:55 Cloudy 57 13.8 36 2 45 45 WSW 18 30 29.68 1005 10 16 N/A
7:15 pm 19:15 Cloudy 57 13.8 37 2.7 47 47 SW 17 28 29.71 1006 10 16 N/A
7:35 pm 19:35 Cloudy 57 13.8 37 2.7 47 47 SW 17 28 29.71 1006 10 16 N/A
7:55 pm 19:55 Cloudy 57 13.8 37 2.6 47 47 SW 17 28 29.71 1006 10 16 N/A
8:15 pm 20:15 Cloudy 57 13.8 37 3 48 48 WSW 20 31 29.71 1006 10 16 N/A
8:35 pm 20:35 Cloudy 56 13.5 37 2.8 49 49 WSW 14 22 29.71 1006 10 16 N/A
8:55 pm 20:55 Cloudy 55 12.7 37 2.6 51 51 SW 13 20 29.71 1006 10 16 N/A
9:15 pm 21:15 Cloudy 55 12.5 37 2.6 51 51 SW 10 17 29.74 1007 10 16 N/A
9:35 pm 21:35 Cloudy 55 12.5 37 2.5 51 51 SW 16 26 29.74 1007 10 16 N/A
9:55 pm 21:55 Cloudy 55 12.5 37 2.6 51 51 SSW 18 30 29.77 1008 10 16 N/A
10:15 pm 22:15 Cloudy 55 12.5 38 3.2 53 53 SW 13 20 29.77 1008 10 16 N/A
10:35 pm 22:35 Cloudy with Drizzle 55 12.5 40 4.7 59 59 WSW 13 20 29.77 1008 10 16 N/A
10:55 pm 22:55 Cloudy with Drizzle 55 12.5 42 5.6 63 63 SW 14 22 29.77 1008 10 16 N/A
11:15 pm 23:15 Cloudy 55 12.5 42 5.7 64 64 SSW 15 24 29.77 1008 10 16 N/A
11:35 pm 23:35 Cloudy 55 12.5 43 6.1 65 65 S 16 26 29.74 1007 10 16 N/A
11:55 pm 23:55 Cloudy with Light Rain 55 12.5 43 6.1 65 65 SSW 13 20 29.77 1008 10 16 N/A

Powered by AerisWeather